Flag for Norway Weather past 2 weeks in Vestby, Norway

Now
34 °F

Chilly.


Feels Like: 30 °F
Forecast: 36 / 41 °F
Wind: 5 mph from South

Location: Rygge

Current Time: Feb 28, 2015 at 2:23:29 AM

Latest Report: Feb 28, 2015 at 1:50 AM


Visibility: N/A

Pressure: 29.86 "Hg

Humidity: 87%

Dew point: 30 °F

Location of VestbyLocation

Historic Weather in Vestby — Graph

°F

Vestby temperature yesterday

Maximum temperature yesterday: 41 °F (at 1:20 PM)
Minimum temperature yesterday: 32 °F (at 10:50 PM)
Average temperature yesterday: 37 °F

Past Weeks' High & Low Weather Summary

 TemperatureHumidityPressure
High45 °F (Feb 18, 7:20 AM)100% (Feb 13, 12:20 AM)30.51 "Hg (Feb 13, 12:20 AM)
Low25 °F (Feb 22, 2:20 AM)42% (Feb 22, 2:20 PM)29.00 "Hg (Feb 23, 12:50 PM)
Average37 °F88%29.77 "Hg
* Reported Feb 13 12:20 AM — Feb 28 12:50 AM, Vestby, Weather by CustomWeather, © 2015

Note: Actual official high and low records may vary slightly from our data, if they occured in-between our weather recording intervals... More about our weather records

Advertising

Vestby weather history for previous 24 hours

 ConditionsComfort  
Time TempWeatherWind HumidityBarometerVisibility
12:50 AM
Sat, Feb 28
34 °FChilly.6 mph93%29.86 "HgN/A
12:20 AM32 °FChilly.5 mph93%29.86 "HgN/A
11:50 PM
Fri, Feb 27
32 °FChilly.5 mph93%29.86 "HgN/A
11:20 PM34 °FClear.6 mph87%29.89 "Hg10 mi
10:50 PM32 °FClear.1 mph93%29.89 "Hg10 mi
9:50 PM34 °FClear.6 mph93%29.89 "Hg10 mi
9:20 PM36 °FClear.6 mph87%29.89 "Hg10 mi
8:50 PM36 °FClear.7 mph87%29.86 "Hg10 mi
8:20 PM36 °FPassing clouds.3 mph93%29.86 "HgN/A
7:50 PM36 °FClear.6 mph93%29.86 "Hg10 mi
7:20 PM36 °FClear.7 mph87%29.86 "Hg10 mi
6:50 PM37 °FPassing clouds.5 mph87%29.86 "HgN/A
6:20 PM37 °FClear.5 mph87%29.86 "Hg10 mi
5:50 PM39 °FClear.5 mph87%29.86 "Hg10 mi
5:20 PM39 °FPassing clouds.6 mph87%29.83 "HgN/A
4:50 PM41 °FPassing clouds.9 mph81%29.83 "HgN/A
4:20 PM41 °FPassing clouds.7 mph81%29.83 "HgN/A
3:50 PM41 °FScattered clouds.9 mph87%29.83 "HgN/A
3:20 PM41 °FScattered clouds.8 mph87%29.80 "HgN/A
2:50 PM41 °FScattered clouds.7 mph87%29.80 "HgN/A
2:20 PM41 °FScattered clouds.7 mph87%29.80 "HgN/A
1:50 PM41 °FPartly sunny.7 mph87%29.80 "HgN/A
1:20 PM41 °FBroken clouds.5 mph87%29.80 "HgN/A
12:50 PM39 °FPartly sunny.5 mph93%29.80 "HgN/A
12:20 PM37 °FPartly sunny.6 mph93%29.77 "HgN/A
11:50 AM37 °FBroken clouds.9 mph93%29.77 "HgN/A
11:20 AM37 °FPartly sunny.8 mph100%29.74 "HgN/A
10:50 AM37 °FPartly sunny.9 mph100%29.74 "Hg5 mi
10:20 AM39 °FFog.7 mph100%29.71 "Hg1 mi
9:50 AM39 °FDrizzle. Dense fog.9 mph100%29.71 "Hg0 mi
9:20 AM39 °FDrizzle. Partly sunny.12 mph93%29.71 "Hg1 mi
8:50 AM37 °FLight rain. Partly sunny.12 mph100%29.71 "Hg1 mi
8:20 AM37 °FLight rain. Partly sunny.13 mph93%29.68 "Hg1 mi
7:50 AM36 °FLight rain. Partly sunny.14 mph100%29.68 "Hg1 mi
7:20 AM36 °FLight rain. Passing clouds.14 mph93%29.71 "Hg2 mi
6:50 AM36 °FLight rain. Passing clouds.13 mph93%29.71 "Hg2 mi
6:20 AM36 °FLight rain. Passing clouds.13 mph93%29.71 "Hg3 mi
5:50 AM36 °FLight rain. Low clouds.15 mph93%29.71 "Hg3 mi
5:20 AM36 °FLight rain. Low clouds.13 mph93%29.71 "Hg3 mi
4:20 AM37 °FLight rain. Low clouds.16 mph93%29.71 "Hg3 mi
3:50 AM37 °FLight rain. Low clouds.17 mph93%29.71 "Hg3 mi
3:20 AM37 °FLight rain. Low clouds.16 mph93%29.71 "Hg2 mi
2:50 AM37 °FLight rain. Low clouds.17 mph93%29.71 "Hg2 mi
2:20 AM36 °FLight rain. Low clouds.15 mph100%29.71 "Hg2 mi
Weather by CustomWeather, © 2015

See weather overviewHow to use our weather pages